Bemidji, MN

8:25 AM CDT on April 20, 2018 (GMT -0500)
Bemidji-Beltrami County

Weather History for KBJI - May, 2013

Change the Weather History Date:

Thursday, May 23, 2013

  Actual Average Record
Temperature  
Mean Temperature 51 °F -  
Max Temperature 63 °F 69 °F 88 °F (1950)
Min Temperature 39 °F 44 °F 29 °F (1963)
Degree Days  
Heating Degree Days 14    
Growing Degree Days 1 (Base 50)    
Moisture  
Dew Point 29 °F    
Average Humidity 45    
Maximum Humidity 75    
Minimum Humidity 23    
Precipitation  
Precipitation 0.00 in - - ()
Sea Level Pressure  
Sea Level Pressure 30.27 in    
Wind  
Wind Speed 7 mph (NE)    
Max Wind Speed 13 mph    
Max Gust Speed 16 mph    
Visibility 9 miles    
Events      
Averages and records for this station are not official NWS values.
T = Trace of Precipitation, MM = Missing Value Source: NWS Daily Summary

Daily Weather History Graph

Daily Weather History Graph

Search for Another Location

Airport or City:

Astronomy

May. 23, 2013 Rise Set
Actual Time 5:33 AM CDT 9:00 PM CDT
Civil Twilight 4:55 AM CDT 9:38 PM CDT
Nautical Twilight 4:05 AM CDT 10:28 PM CDT
Astronomical Twilight 2:59 AM CDT 11:35 PM CDT
Moon 7:28 PM CDT (5/23) 4:26 AM CDT (5/23)
Length of Visible Light 16h 42m
Length of Day
15h 26m
Waxing Gibbous, 97% of the Moon is Illuminated
May 23
Waxing Gibbous
May 24
Full
May 31
Last Quarter
Jun 8
New
Jun 16
First Quarter

Hourly Weather History & Observations

Time (CDT) Temp. Windchill Dew Point Humidity Pressure Visibility Wind Dir Wind Speed Gust Speed Precip Events Conditions
12:12 AM 52.5 °F - 37.6 °F 57% 30.12 in 10.0 mi NNE 10.4 mph - N/A   Clear
12:32 AM 51.3 °F - 37.0 °F 58% 30.13 in 10.0 mi NE 8.1 mph - N/A   Clear
12:52 AM 50.2 °F - 36.7 °F 60% 30.14 in 10.0 mi NE 6.9 mph - N/A   Clear
1:12 AM 48.9 °F - 36.5 °F 62% 30.14 in 10.0 mi NE 9.2 mph - N/A   Clear
1:32 AM 49.5 °F - 35.8 °F 59% 30.15 in 10.0 mi NE 9.2 mph - N/A   Clear
1:52 AM 48.0 °F - 35.6 °F 62% 30.16 in 10.0 mi NE 6.9 mph - N/A   Clear
2:12 AM 47.5 °F - 35.6 °F 63% 30.17 in 10.0 mi NNE 5.8 mph - N/A   Clear
2:32 AM 46.6 °F - 35.4 °F 65% 30.18 in 10.0 mi NNE 5.8 mph - N/A   Clear
2:52 AM 45.5 °F 41.3 °F 35.4 °F 68% 30.19 in 10.0 mi NE 8.1 mph - N/A   Clear
3:12 AM 44.8 °F 40.4 °F 34.9 °F 68% 30.19 in 10.0 mi NE 8.1 mph - N/A   Clear
3:32 AM 44.8 °F 39.9 °F 34.2 °F 66% 30.21 in 10.0 mi NE 9.2 mph - N/A   Clear
3:52 AM 43.5 °F 39.4 °F 33.3 °F 67% 30.21 in 10.0 mi NE 6.9 mph - N/A   Clear
4:12 AM 43.0 °F 38.8 °F 32.9 °F 68% 30.22 in 10.0 mi NE 6.9 mph - N/A   Clear
4:32 AM 41.9 °F 38.2 °F 32.2 °F 68% 30.24 in 10.0 mi NE 5.8 mph - N/A   Clear
4:52 AM 41.2 °F 37.3 °F 32.0 °F 70% 30.24 in 10.0 mi NE 5.8 mph - N/A   Clear
5:12 AM 41.2 °F 38.2 °F 32.0 °F 70% 30.25 in 10.0 mi NE 4.6 mph - N/A   Clear
5:32 AM 39.6 °F 35.4 °F 31.5 °F 73% 30.26 in 10.0 mi NE 5.8 mph - N/A   Clear
5:52 AM 40.1 °F 36.9 °F 31.6 °F 72% 30.26 in 10.0 mi NE 4.6 mph - N/A   Clear
6:12 AM 40.3 °F 37.1 °F 31.6 °F 71% 30.27 in 10.0 mi NE 4.6 mph - N/A   Clear
6:32 AM 41.7 °F 38.0 °F 32.0 °F 68% 30.28 in 10.0 mi NE 5.8 mph - N/A   Clear
6:52 AM 42.8 °F 38.0 °F 31.5 °F 64% 30.29 in 10.0 mi ENE 8.1 mph - N/A   Clear
7:12 AM 43.7 °F 38.6 °F 30.9 °F 61% 30.29 in 10.0 mi ENE 9.2 mph - N/A   Clear
7:32 AM 44.2 °F 39.7 °F 30.6 °F 59% 30.30 in 10.0 mi NE 8.1 mph - N/A   Clear
7:52 AM 45.3 °F 40.6 °F 30.4 °F 56% 30.30 in 10.0 mi ENE 9.2 mph - N/A   Clear
8:12 AM 45.9 °F 41.7 °F 30.0 °F 54% 30.31 in 10.0 mi NE 8.1 mph - N/A   Clear
8:32 AM 46.9 °F - 30.2 °F 52% 30.31 in 10.0 mi ENE 5.8 mph - N/A   Clear
8:52 AM 48.2 °F - 29.3 °F 48% 30.32 in 10.0 mi East 6.9 mph - N/A   Clear
9:12 AM 48.6 °F - 28.8 °F 46% 30.32 in 10.0 mi ESE 4.6 mph - N/A   Clear
9:32 AM 49.3 °F - 27.7 °F 43% 30.32 in 10.0 mi East 6.9 mph - N/A   Clear
9:52 AM 50.2 °F - 28.2 °F 43% 30.32 in 7.0 mi ENE 5.8 mph - N/A   Clear
10:12 AM 50.4 °F - 27.3 °F 41% 30.32 in 10.0 mi ESE 3.5 mph - N/A   Clear
10:32 AM 52.3 °F - 28.0 °F 39% 30.33 in 7.0 mi NE 8.1 mph - N/A   Clear
10:52 AM 52.0 °F - 26.1 °F 37% 30.32 in 10.0 mi Calm Calm - N/A   Clear
11:12 AM 53.1 °F - 26.8 °F 36% 30.32 in 10.0 mi NNE 10.4 mph - N/A   Clear
11:32 AM 54.0 °F - 25.9 °F 34% 30.33 in 7.0 mi North 11.5 mph - N/A   Clear
11:52 AM 54.1 °F - 23.9 °F 31% 30.33 in 7.0 mi North 5.8 mph - N/A   Clear
12:12 PM 55.6 °F - 24.1 °F 30% 30.33 in 10.0 mi NNE 8.1 mph - N/A   Clear
12:32 PM 56.7 °F - 24.1 °F 28% 30.33 in 7.0 mi ENE 9.2 mph - N/A   Clear
12:52 PM 56.3 °F - 25.0 °F 30% 30.32 in 10.0 mi East 5.8 mph 9.2 mph N/A   Clear
1:12 PM 57.2 °F - 26.8 °F 31% 30.32 in 10.0 mi East 8.1 mph - N/A   Clear
1:32 PM 58.5 °F - 25.9 °F 29% 30.32 in 10.0 mi East 9.2 mph - N/A   Clear
1:52 PM 59.4 °F - 24.6 °F 26% 30.32 in 10.0 mi NE 12.7 mph 16.1 mph N/A   Clear
2:12 PM 58.5 °F - 24.1 °F 27% 30.31 in 7.0 mi NE 5.8 mph - N/A   Clear
2:32 PM 59.9 °F - 24.1 °F 25% 30.31 in 10.0 mi NE 6.9 mph - N/A   Clear
2:52 PM 61.2 °F - 24.1 °F 24% 30.31 in 10.0 mi ENE 3.5 mph 16.1 mph N/A   Clear
3:12 PM 61.5 °F - 24.4 °F 24% 30.31 in 7.0 mi North 4.6 mph - N/A   Clear
3:32 PM 61.0 °F - 24.8 °F 25% 30.30 in 7.0 mi East 5.8 mph - N/A   Clear
3:52 PM 61.7 °F - 25.0 °F 25% 30.30 in 10.0 mi Calm Calm - N/A   Clear
4:12 PM 62.2 °F - 25.0 °F 24% 30.29 in 10.0 mi Calm Calm - N/A   Clear
4:32 PM 62.8 °F - 26.2 °F 25% 30.29 in 10.0 mi East 6.9 mph - N/A   Clear
4:52 PM 63.1 °F - 25.2 °F 24% 30.29 in 7.0 mi East 9.2 mph - N/A   Clear
5:12 PM 62.6 °F - 24.8 °F 24% 30.29 in 10.0 mi SSE 5.8 mph - N/A   Clear
5:32 PM 63.3 °F - 25.7 °F 24% 30.29 in 7.0 mi East 6.9 mph - N/A   Clear
5:52 PM 63.0 °F - 25.2 °F 24% 30.29 in 7.0 mi NNE 4.6 mph - N/A   Clear
6:12 PM 63.0 °F - 24.4 °F 23% 30.29 in 7.0 mi NE 4.6 mph - N/A   Clear
6:32 PM 63.0 °F - 24.8 °F 23% 30.28 in 10.0 mi NW 3.5 mph - N/A   Clear
6:52 PM 63.0 °F - 26.4 °F 25% 30.28 in 10.0 mi East 5.8 mph - N/A   Clear
7:12 PM 62.4 °F - 23.7 °F 23% 30.28 in 10.0 mi Calm Calm - N/A   Clear
7:32 PM 62.1 °F - 23.4 °F 23% 30.28 in 5.0 mi Calm Calm - N/A   Haze
7:53 PM 61.9 °F - 25.2 °F 25% 30.27 in 10.0 mi ENE 3.5 mph - N/A   Clear
8:12 PM 59.2 °F - 27.7 °F 30% 30.27 in 10.0 mi ENE 4.6 mph - N/A   Clear
8:32 PM 58.1 °F - 27.5 °F 31% 30.28 in 7.0 mi East 3.5 mph - N/A   Clear
8:53 PM 57.9 °F - 26.6 °F 30% 30.27 in 5.0 mi ENE 4.6 mph - N/A   Haze
9:12 PM 54.1 °F - 28.8 °F 38% 30.28 in 7.0 mi Calm Calm - N/A   Clear
9:32 PM 50.2 °F - 27.3 °F 41% 30.28 in 10.0 mi Calm Calm - N/A   Clear
9:52 PM 50.5 °F - 27.3 °F 41% 30.29 in 10.0 mi Calm Calm - N/A   Clear
10:12 PM 47.1 °F - 28.0 °F 48% 30.29 in 10.0 mi Calm Calm - N/A   Clear
10:32 PM 46.0 °F - 31.1 °F 56% 30.30 in 10.0 mi Calm Calm - N/A   Clear
10:52 PM 42.6 °F - 30.7 °F 63% 30.31 in 10.0 mi Calm Calm - N/A   Clear
11:12 PM 43.3 °F - 30.2 °F 60% 30.31 in 10.0 mi Calm Calm - N/A   Clear
11:32 PM 40.6 °F - 30.7 °F 68% 30.31 in 10.0 mi Calm Calm - N/A   Clear
11:52 PM 40.6 °F - 33.4 °F 75% 30.31 in 10.0 mi Calm Calm - N/A   Clear